| time (UTC) | temp F | wind direction | speed knots | gust knots | rain 1hr in | rain 24hr in | rain mn in | humidity % | barometer mb |
| 20260507160031 | 63 | 200 | 1.7 | 4.3 | 0.00 | 0.32 | 0.32 | 84 | 1014.7 |
| 20260507154520 | 63 | 223 | 0.9 | 4.3 | 0.00 | 0.32 | 0.32 | 85 | 1014.8 |
| 20260507153019 | 64 | 165 | 1.7 | 6.1 | 0.00 | 0.32 | 0.32 | 85 | 1014.9 |
| 20260507151534 | 64 | 103 | 0.0 | 4.3 | 0.00 | 0.32 | 0.32 | 85 | 1014.9 |
| 20260507150018 | 63 | 180 | 0.9 | 4.3 | 0.00 | 0.32 | 0.32 | 85 | 1014.9 |
| 20260507144519 | 64 | 200 | 2.6 | 6.1 | 0.00 | 0.32 | 0.32 | 87 | 1015.0 |
| 20260507143016 | 62 | 106 | 0.0 | 3.5 | 0.02 | 0.32 | 0.32 | 88 | 1015.2 |
| 20260507141516 | 61 | 200 | 0.0 | 2.6 | 0.03 | 0.32 | 0.32 | 91 | 1014.9 |
| 20260507140019 | 61 | 211 | 2.6 | 4.3 | 0.03 | 0.32 | 0.32 | 92 | 1015.2 |
| 20260507134528 | 60 | 251 | 0.0 | 2.6 | 0.03 | 0.32 | 0.32 | 91 | 1015.2 |
| 20260507133015 | 61 | 265 | 0.9 | 3.5 | 0.02 | 0.31 | 0.31 | 87 | 1015.4 |
| 20260507131519 | 62 | 311 | 1.7 | 4.3 | 0.00 | 0.28 | 0.28 | 85 | 1015.7 |
| 20260507130013 | 63 | 11 | 0.9 | 3.5 | 0.00 | 0.28 | 0.28 | 88 | 1015.7 |
| 20260507124512 | 62 | 347 | 2.6 | 4.3 | 0.00 | 0.28 | 0.28 | 88 | 1015.9 |
| 20260507123018 | 63 | 315 | 0.9 | 4.3 | 0.00 | 0.28 | 0.28 | 87 | 1016.0 |
| 20260507121511 | 63 | 337 | 0.0 | 4.3 | 0.00 | 0.28 | 0.28 | 86 | 1015.9 |
| 20260507120011 | 63 | 27 | 0.0 | 1.7 | 0.00 | 0.28 | 0.28 | 87 | 1015.9 |
| 20260507114513 | 63 | 26 | 0.0 | 3.5 | 0.00 | 0.28 | 0.28 | 85 | 1015.8 |
| 20260507113006 | 63 | 185 | 0.9 | 2.6 | 0.00 | 0.28 | 0.28 | 88 | 1015.9 |
| 20260507111510 | 63 | 195 | 0.0 | 2.6 | 0.00 | 0.28 | 0.28 | 90 | 1015.9 |
| 20260507110003 | 62 | 213 | 0.0 | 3.5 | 0.00 | 0.28 | 0.28 | 92 | 1016.1 |
| 20260507104501 | 61 | 160 | 0.0 | 1.7 | 0.01 | 0.28 | 0.28 | 93 | 1016.2 |
| 20260507103100 | 60 | 180 | 0.0 | 2.6 | 0.02 | 0.28 | 0.28 | 94 | 1016.2 |
| 20260507101600 | 60 | 119 | 0.0 | 2.6 | 0.02 | 0.28 | 0.28 | 94 | 1016.3 |
| 20260507100058 | 60 | 112 | 0.0 | 3.5 | 0.04 | 0.28 | 0.28 | 94 | 1016.2 |
| 20260507094609 | 59 | 167 | 0.9 | 2.6 | 0.03 | 0.28 | 0.28 | 95 | 1016.5 |
| 20260507093058 | 59 | 169 | 0.9 | 2.6 | 0.05 | 0.28 | 0.28 | 95 | 1016.4 |
| 20260507091613 | 58 | 215 | 0.0 | 3.5 | 0.06 | 0.27 | 0.27 | 94 | 1016.3 |
| 20260507090100 | 58 | 250 | 0.9 | 2.6 | 0.06 | 0.25 | 0.25 | 95 | 1016.3 |
| 20260507084553 | 58 | 250 | 0.0 | 0.9 | 0.08 | 0.25 | 0.25 | 95 | 1016.2 |
| 20260507083047 | 58 | 250 | 0.0 | 1.7 | 0.08 | 0.23 | 0.23 | 95 | 1016.1 |
| 20260507081544 | 58 | 250 | 0.0 | 0.9 | 0.06 | 0.20 | 0.20 | 95 | 1016.0 |
| 20260507080041 | 58 | 250 | 0.0 | 0.9 | 0.05 | 0.19 | 0.19 | 95 | 1015.9 |
| 20260507074544 | 57 | 250 | 0.0 | 0.9 | 0.04 | 0.17 | 0.17 | 95 | 1015.8 |
| 20260507073035 | 57 | 250 | 0.0 | 0.9 | 0.04 | 0.15 | 0.15 | 94 | 1016.0 |
| 20260507071532 | 57 | 250 | 0.0 | 0.9 | 0.06 | 0.15 | 0.15 | 94 | 1015.7 |
| 20260507070030 | 56 | 250 | 0.0 | 0.9 | 0.10 | 0.14 | 0.14 | 94 | 1015.4 |
| 20260507064534 | 55 | 250 | 0.0 | 1.7 | 0.13 | 0.13 | 0.13 | 94 | 1015.4 |
| 20260507063031 | 55 | 250 | 0.0 | 0.9 | 0.11 | 0.11 | 0.11 | 94 | 1015.3 |
| 20260507061527 | 55 | 249 | 0.0 | 0.9 | 0.08 | 0.08 | 0.08 | 93 | 1015.3 |
| 20260507060029 | 55 | 249 | 0.0 | 1.7 | 0.04 | 0.04 | 0.04 | 93 | 1015.2 |
| 20260507054522 | 55 | 249 | 0.0 | 1.7 | 0.01 | 0.01 | 0.01 | 92 | 1014.9 |
| 20260507053021 | 55 | 249 | 0.0 | 1.7 | 0.00 | 0.00 | 0.00 | 92 | 1014.6 |
| 20260507051529 | 54 | 249 | 0.0 | 0.9 | 0.00 | 0.00 | 0.00 | 92 | 1014.5 |
| 20260507050018 | 55 | 249 | 0.0 | 0.9 | 0.00 | 0.00 | 0.00 | 93 | 1014.5 |
| 20260507044517 | 54 | 249 | 0.0 | 0.0 | 0.00 | 0.00 | 0.00 | 93 | 1014.1 |
| 20260507043015 | 54 | 249 | 0.0 | 0.9 | 0.00 | 0.00 | 0.00 | 93 | 1014.0 |
| 20260507041514 | 54 | 248 | 0.0 | 0.9 | 0.00 | 0.00 | 0.00 | 93 | 1014.0 |
| 20260507040013 | 53 | 248 | 0.9 | 1.7 | 0.00 | 0.00 | 0.00 | 93 | 1014.0 |
| 20260507034520 | 53 | 249 | 0.0 | 3.5 | 0.00 | 0.00 | 0.00 | 93 | 1013.9 |
| 20260507033013 | 53 | 207 | 0.0 | 2.6 | 0.00 | 0.00 | 0.00 | 93 | 1014.0 |
| 20260507031512 | 53 | 283 | 0.0 | 1.7 | 0.00 | 0.00 | 0.00 | 93 | 1014.0 |
| 20260507030017 | 53 | 283 | 0.0 | 0.9 | 0.00 | 0.00 | 0.00 | 92 | 1013.9 |
| 20260507024518 | 53 | 283 | 0.0 | 1.7 | 0.00 | 0.00 | 0.00 | 93 | 1013.7 |
| 20260507023010 | 53 | 275 | 0.0 | 1.7 | 0.00 | 0.00 | 0.00 | 93 | 1013.5 |
| 20260507021509 | 52 | 275 | 0.9 | 2.6 | 0.00 | 0.00 | 0.00 | 92 | 1013.6 |
| 20260507020009 | 53 | 252 | 0.0 | 0.0 | 0.00 | 0.00 | 0.00 | 92 | 1013.4 |
| 20260507014510 | 53 | 252 | 0.0 | 0.9 | 0.00 | 0.00 | 0.00 | 92 | 1013.5 |
| 20260507013007 | 53 | 252 | 0.0 | 1.7 | 0.00 | 0.00 | 0.00 | 92 | 1013.6 |
| 20260507011508 | 53 | 252 | 0.0 | 2.6 | 0.00 | 0.00 | 0.00 | 92 | 1013.3 |
| 20260507010010 | 53 | 257 | 0.0 | 0.0 | 0.00 | 0.00 | 0.00 | 92 | 1013.3 |
| 20260507004503 | 53 | 257 | 0.0 | 1.7 | 0.00 | 0.00 | 0.00 | 91 | 1013.3 |
| 20260507003001 | 53 | 257 | 0.9 | 2.6 | 0.00 | 0.00 | 0.00 | 91 | 1013.6 |
| 20260507001602 | 53 | 239 | 0.0 | 1.7 | 0.00 | 0.00 | 0.00 | 91 | 1013.7 |
| 20260507000105 | 53 | 332 | 0.0 | 1.7 | 0.00 | 0.00 | 0.00 | 91 | 1013.9 |
| 20260506234621 | 53 | 332 | 0.0 | 0.9 | 0.00 | 0.00 | 0.00 | 91 | 1013.7 |
| 20260506233104 | 54 | 332 | 0.0 | 1.7 | 0.00 | 0.00 | 0.00 | 90 | 1013.8 |
| 20260506231557 | 54 | 332 | 0.0 | 3.5 | 0.00 | 0.00 | 0.00 | 90 | 1013.9 |
| 20260506230054 | 54 | 165 | 1.7 | 2.6 | 0.00 | 0.00 | 0.00 | 90 | 1013.7 |
| 20260506224555 | 54 | 252 | 0.0 | 0.9 | 0.00 | 0.00 | 0.00 | 89 | 1013.9 |
| 20260506223057 | 55 | 252 | 0.0 | 1.7 | 0.00 | 0.00 | 0.00 | 88 | 1014.0 |
| 20260506221550 | 55 | 252 | 0.0 | 0.9 | 0.00 | 0.00 | 0.00 | 87 | 1013.9 |
| 20260506220050 | 56 | 252 | 0.9 | 1.7 | 0.00 | 0.00 | 0.00 | 85 | 1013.6 |
| 20260506214547 | 57 | 252 | 0.0 | 3.5 | 0.00 | 0.00 | 0.00 | 84 | 1013.5 |
| 20260506213044 | 57 | 261 | 0.0 | 3.5 | 0.00 | 0.00 | 0.00 | 83 | 1013.5 |
| 20260506211550 | 58 | 355 | 2.6 | 4.3 | 0.00 | 0.00 | 0.00 | 83 | 1013.2 |
| 20260506210043 | 58 | 240 | 1.7 | 7.0 | 0.00 | 0.00 | 0.00 | 85 | 1013.2 |
| 20260506204543 | 56 | 186 | 0.9 | 4.3 | 0.00 | 0.00 | 0.00 | 88 | 1013.0 |
| 20260506203042 | 56 | 188 | 1.7 | 2.6 | 0.00 | 0.00 | 0.00 | 87 | 1012.9 |
| 20260506201542 | 57 | 185 | 0.9 | 2.6 | 0.00 | 0.00 | 0.00 | 85 | 1012.8 |
| 20260506200041 | 58 | 182 | 0.0 | 2.6 | 0.00 | 0.00 | 0.00 | 84 | 1012.9 |
| 20260506194540 | 59 | 250 | 0.0 | 2.6 | 0.00 | 0.00 | 0.00 | 82 | 1013.0 |
| 20260506193039 | 61 | 276 | 1.7 | 4.3 | 0.00 | 0.00 | 0.00 | 80 | 1012.8 |
| 20260506191540 | 59 | 197 | 0.0 | 3.5 | 0.00 | 0.00 | 0.00 | 83 | 1012.6 |
| 20260506190038 | 59 | 236 | 0.0 | 2.6 | 0.00 | 0.00 | 0.00 | 85 | 1012.4 |
| 20260506184537 | 59 | 242 | 0.9 | 3.5 | 0.00 | 0.00 | 0.00 | 86 | 1012.1 |
| 20260506183037 | 60 | 257 | 0.0 | 0.9 | 0.00 | 0.00 | 0.00 | 84 | 1012.0 |
| 20260506181538 | 62 | 257 | 0.0 | 1.7 | 0.00 | 0.00 | 0.00 | 81 | 1012.0 |
| 20260506180036 | 63 | 257 | 0.0 | 1.7 | 0.00 | 0.00 | 0.00 | 79 | 1011.9 |
| 20260506174537 | 64 | 259 | 0.9 | 2.6 | 0.00 | 0.00 | 0.00 | 77 | 1011.9 |
| 20260506173035 | 65 | 263 | 0.9 | 3.5 | 0.00 | 0.00 | 0.00 | 74 | 1011.9 |
| 20260506171534 | 66 | 236 | 2.6 | 7.0 | 0.00 | 0.00 | 0.00 | 72 | 1011.9 |
| 20260506170033 | 67 | 258 | 3.5 | 6.1 | 0.00 | 0.00 | 0.00 | 70 | 1011.8 |
| 20260506164534 | 67 | 220 | 1.7 | 3.5 | 0.00 | 0.00 | 0.00 | 71 | 1011.7 |
| 20260506163034 | 67 | 255 | 0.9 | 5.2 | 0.00 | 0.00 | 0.00 | 71 | 1011.8 |
| 20260506161535 | 68 | 220 | 2.6 | 4.3 | 0.00 | 0.00 | 0.00 | 72 | 1011.8 |